FENGYUN 4A

Last updated on Fri Dec 19 2025 00:02:25 GMT+0000 (Coordinated Universal Time)

1 41882U 16077A 25352.64980853 -.00000333 00000+0 00000+0 0 9992 2 41882 1.8638 82.3341 0004512 143.0470 219.8229 1.00267081 33120
UTC large
Height (km)
Speed (km/s)
/
Latitude / Longitude
Inclination (degrees)
Orbital Period (minutes)
Azimuth
Elevation
Range (km)
Doppler Factor

Next 0 passes for location: London (51.5072 / 0.1276)

Sorry there are no passes over London.